Retour au catalogue

ARIANE 5 DEB

SYLDA

ActifHEO
NORAD 41594·DEBRIS·🇫🇷 France

Lancé Jun 18, 2016 depuis Guiana Space Centre

Loading…

Prochains Passages (prochaines 24 heures)

TLE

FraisSource: Space-Track

Époque: Sep 14, 2026, 05:36 UTC

1 41594U 16039D   26257.23357853  .00000936  00000-0  86044-3 0  9993
2 41594   5.9478 198.0467 5694570 217.7890  83.8614  4.39170305120479

Suivez ARIANE 5 DEB en temps réel avec AllMySat

Download on the App Store